﻿測定場所 (Monitoring sites),日付 (Measurement date),時間 (Measurement time),線量率 最大値 (max) μGy/h,線量率 最小値 (min) μGy/h,線量率 平均値 (average) μGy/h,
新宿 (Shinjuku),2014-09-28,23:01～24:00,0.0359,0.0320,0.0335,
新宿 (Shinjuku),2014-09-28,22:01～23:00,0.0355,0.0317,0.0335,
新宿 (Shinjuku),2014-09-28,21:01～22:00,0.0351,0.0315,0.0333,
新宿 (Shinjuku),2014-09-28,20:01～21:00,0.0353,0.0318,0.0333,
新宿 (Shinjuku),2014-09-28,19:01～20:00,0.0351,0.0303,0.0332,
新宿 (Shinjuku),2014-09-28,18:01～19:00,0.0347,0.0309,0.0331,
新宿 (Shinjuku),2014-09-28,17:01～18:00,0.0354,0.0316,0.0334,
新宿 (Shinjuku),2014-09-28,16:01～17:00,0.0350,0.0313,0.0332,
新宿 (Shinjuku),2014-09-28,15:01～16:00,0.0356,0.0309,0.0332,
新宿 (Shinjuku),2014-09-28,14:01～15:00,0.0364,0.0314,0.0335,
新宿 (Shinjuku),2014-09-28,13:01～14:00,0.0360,0.0318,0.0336,
新宿 (Shinjuku),2014-09-28,12:01～13:00,0.0355,0.0318,0.0335,
新宿 (Shinjuku),2014-09-28,11:01～12:00,0.0358,0.0316,0.0336,
新宿 (Shinjuku),2014-09-28,10:01～11:00,0.0359,0.0314,0.0335,
新宿 (Shinjuku),2014-09-28,09:01～10:00,0.0356,0.0317,0.0339,
新宿 (Shinjuku),2014-09-28,08:01～09:00,0.0361,0.0324,0.0341,
新宿 (Shinjuku),2014-09-28,07:01～08:00,0.0364,0.0320,0.0341,
新宿 (Shinjuku),2014-09-28,06:01～07:00,0.0358,0.0309,0.0337,
新宿 (Shinjuku),2014-09-28,05:01～06:00,0.0361,0.0315,0.0337,
新宿 (Shinjuku),2014-09-28,04:01～05:00,0.0358,0.0314,0.0336,
新宿 (Shinjuku),2014-09-28,03:01～04:00,0.0359,0.0322,0.0338,
新宿 (Shinjuku),2014-09-28,02:01～03:00,0.0355,0.0317,0.0334,
新宿 (Shinjuku),2014-09-28,01:01～02:00,0.0362,0.0319,0.0337,
新宿 (Shinjuku),2014-09-28,00:01～01:00,0.0356,0.0307,0.0334,
新宿 (Shinjuku),2014-09-27,23:01～24:00,0.0357,0.0317,0.0332,
新宿 (Shinjuku),2014-09-27,22:01～23:00,0.0348,0.0313,0.0331,
新宿 (Shinjuku),2014-09-27,21:01～22:00,0.0354,0.0317,0.0332,
新宿 (Shinjuku),2014-09-27,20:01～21:00,0.0350,0.0307,0.0330,
新宿 (Shinjuku),2014-09-27,19:01～20:00,0.0346,0.0314,0.0331,
新宿 (Shinjuku),2014-09-27,18:01～19:00,0.0351,0.0305,0.0331,
新宿 (Shinjuku),2014-09-27,17:01～18:00,0.0362,0.0308,0.0331,
新宿 (Shinjuku),2014-09-27,16:01～17:00,0.0346,0.0309,0.0329,
新宿 (Shinjuku),2014-09-27,15:01～16:00,0.0356,0.0310,0.0329,
新宿 (Shinjuku),2014-09-27,14:01～15:00,0.0350,0.0314,0.0331,
新宿 (Shinjuku),2014-09-27,13:01～14:00,0.0361,0.0313,0.0332,
新宿 (Shinjuku),2014-09-27,12:01～13:00,0.0353,0.0308,0.0330,
新宿 (Shinjuku),2014-09-27,11:01～12:00,0.0351,0.0311,0.0330,
新宿 (Shinjuku),2014-09-27,10:01～11:00,0.0360,0.0314,0.0333,
新宿 (Shinjuku),2014-09-27,09:01～10:00,0.0353,0.0316,0.0335,
新宿 (Shinjuku),2014-09-27,08:01～09:00,0.0363,0.0310,0.0334,
新宿 (Shinjuku),2014-09-27,07:01～08:00,0.0362,0.0316,0.0337,
新宿 (Shinjuku),2014-09-27,06:01～07:00,0.0355,0.0312,0.0331,
新宿 (Shinjuku),2014-09-27,05:01～06:00,0.0354,0.0316,0.0333,
新宿 (Shinjuku),2014-09-27,04:01～05:00,0.0349,0.0311,0.0332,
新宿 (Shinjuku),2014-09-27,03:01～04:00,0.0358,0.0311,0.0333,
新宿 (Shinjuku),2014-09-27,02:01～03:00,0.0350,0.0310,0.0333,
新宿 (Shinjuku),2014-09-27,01:01～02:00,0.0352,0.0304,0.0333,
新宿 (Shinjuku),2014-09-27,00:01～01:00,0.0353,0.0313,0.0332,
新宿 (Shinjuku),2014-09-26,23:01～24:00,0.0353,0.0317,0.0335,
新宿 (Shinjuku),2014-09-26,22:01～23:00,0.0351,0.0317,0.0334,
新宿 (Shinjuku),2014-09-26,21:01～22:00,0.0350,0.0308,0.0334,
新宿 (Shinjuku),2014-09-26,20:01～21:00,0.0352,0.0309,0.0334,
新宿 (Shinjuku),2014-09-26,19:01～20:00,0.0354,0.0314,0.0336,
新宿 (Shinjuku),2014-09-26,18:01～19:00,0.0349,0.0315,0.0332,
新宿 (Shinjuku),2014-09-26,17:01～18:00,0.0350,0.0317,0.0334,
新宿 (Shinjuku),2014-09-26,16:01～17:00,0.0362,0.0305,0.0337,
新宿 (Shinjuku),2014-09-26,15:01～16:00,0.0357,0.0311,0.0331,
新宿 (Shinjuku),2014-09-26,14:01～15:00,0.0351,0.0316,0.0334,
新宿 (Shinjuku),2014-09-26,13:01～14:00,0.0364,0.0318,0.0337,
新宿 (Shinjuku),2014-09-26,12:01～13:00,0.0356,0.0319,0.0338,
新宿 (Shinjuku),2014-09-26,11:01～12:00,0.0354,0.0322,0.0338,
新宿 (Shinjuku),2014-09-26,10:01～11:00,0.0353,0.0321,0.0337,
新宿 (Shinjuku),2014-09-26,09:01～10:00,0.0369,0.0316,0.0340,
新宿 (Shinjuku),2014-09-26,08:01～09:00,0.0360,0.0317,0.0339,
新宿 (Shinjuku),2014-09-26,07:01～08:00,0.0359,0.0316,0.0341,
新宿 (Shinjuku),2014-09-26,06:01～07:00,0.0364,0.0318,0.0338,
新宿 (Shinjuku),2014-09-26,05:01～06:00,0.0361,0.0319,0.0336,
新宿 (Shinjuku),2014-09-26,04:01～05:00,0.0355,0.0316,0.0337,
新宿 (Shinjuku),2014-09-26,03:01～04:00,0.0364,0.0312,0.0338,
新宿 (Shinjuku),2014-09-26,02:01～03:00,0.0360,0.0316,0.0343,
新宿 (Shinjuku),2014-09-26,01:01～02:00,0.0355,0.0318,0.0339,
新宿 (Shinjuku),2014-09-26,00:01～01:00,0.0359,0.0318,0.0339,
新宿 (Shinjuku),2014-09-25,23:01～24:00,0.0357,0.0321,0.0337,
新宿 (Shinjuku),2014-09-25,22:01～23:00,0.0357,0.0307,0.0337,
新宿 (Shinjuku),2014-09-25,21:01～22:00,0.0357,0.0308,0.0335,
新宿 (Shinjuku),2014-09-25,20:01～21:00,0.0366,0.0320,0.0340,
新宿 (Shinjuku),2014-09-25,19:01～20:00,0.0367,0.0319,0.0347,
新宿 (Shinjuku),2014-09-25,18:01～19:00,0.0379,0.0336,0.0359,
新宿 (Shinjuku),2014-09-25,17:01～18:00,0.0401,0.0325,0.0356,
新宿 (Shinjuku),2014-09-25,16:01～17:00,0.0362,0.0319,0.0335,
新宿 (Shinjuku),2014-09-25,15:01～16:00,0.0352,0.0321,0.0336,
新宿 (Shinjuku),2014-09-25,14:01～15:00,0.0355,0.0318,0.0335,
新宿 (Shinjuku),2014-09-25,13:01～14:00,0.0357,0.0314,0.0335,
新宿 (Shinjuku),2014-09-25,12:01～13:00,0.0353,0.0311,0.0335,
新宿 (Shinjuku),2014-09-25,11:01～12:00,0.0372,0.0320,0.0335,
新宿 (Shinjuku),2014-09-25,10:01～11:00,0.0358,0.0311,0.0338,
新宿 (Shinjuku),2014-09-25,09:01～10:00,0.0355,0.0317,0.0338,
新宿 (Shinjuku),2014-09-25,08:01～09:00,0.0348,0.0310,0.0334,
新宿 (Shinjuku),2014-09-25,07:01～08:00,0.0361,0.0313,0.0338,
新宿 (Shinjuku),2014-09-25,06:01～07:00,0.0357,0.0328,0.0341,
新宿 (Shinjuku),2014-09-25,05:01～06:00,0.0370,0.0333,0.0350,
新宿 (Shinjuku),2014-09-25,04:01～05:00,0.0377,0.0326,0.0350,
新宿 (Shinjuku),2014-09-25,03:01～04:00,0.0365,0.0318,0.0339,
新宿 (Shinjuku),2014-09-25,02:01～03:00,0.0357,0.0312,0.0334,
新宿 (Shinjuku),2014-09-25,01:01～02:00,0.0351,0.0308,0.0333,
新宿 (Shinjuku),2014-09-25,00:01～01:00,0.0368,0.0301,0.0335,
新宿 (Shinjuku),2014-09-24,23:01～24:00,0.0353,0.0318,0.0332,
新宿 (Shinjuku),2014-09-24,22:01～23:00,0.0360,0.0323,0.0336,
新宿 (Shinjuku),2014-09-24,21:01～22:00,0.0368,0.0318,0.0337,
新宿 (Shinjuku),2014-09-24,20:01～21:00,0.0360,0.0323,0.0341,
新宿 (Shinjuku),2014-09-24,19:01～20:00,0.0364,0.0320,0.0343,
新宿 (Shinjuku),2014-09-24,18:01～19:00,0.0370,0.0326,0.0346,
新宿 (Shinjuku),2014-09-24,17:01～18:00,0.0362,0.0312,0.0338,
新宿 (Shinjuku),2014-09-24,16:01～17:00,0.0360,0.0311,0.0339,
新宿 (Shinjuku),2014-09-24,15:01～16:00,0.0356,0.0320,0.0337,
新宿 (Shinjuku),2014-09-24,14:01～15:00,0.0364,0.0306,0.0333,
新宿 (Shinjuku),2014-09-24,13:01～14:00,0.0354,0.0308,0.0333,
新宿 (Shinjuku),2014-09-24,12:01～13:00,0.0361,0.0314,0.0335,
新宿 (Shinjuku),2014-09-24,11:01～12:00,0.0353,0.0321,0.0334,
新宿 (Shinjuku),2014-09-24,10:01～11:00,0.0366,0.0310,0.0339,
新宿 (Shinjuku),2014-09-24,09:01～10:00,0.0366,0.0321,0.0344,
新宿 (Shinjuku),2014-09-24,08:01～09:00,0.0362,0.0323,0.0345,
新宿 (Shinjuku),2014-09-24,07:01～08:00,0.0375,0.0321,0.0343,
新宿 (Shinjuku),2014-09-24,06:01～07:00,0.0357,0.0315,0.0341,
新宿 (Shinjuku),2014-09-24,05:01～06:00,0.0363,0.0326,0.0341,
新宿 (Shinjuku),2014-09-24,04:01～05:00,0.0364,0.0322,0.0341,
新宿 (Shinjuku),2014-09-24,03:01～04:00,0.0358,0.0320,0.0341,
新宿 (Shinjuku),2014-09-24,02:01～03:00,0.0361,0.0311,0.0336,
新宿 (Shinjuku),2014-09-24,01:01～02:00,0.0360,0.0315,0.0335,
新宿 (Shinjuku),2014-09-24,00:01～01:00,0.0353,0.0305,0.0332,
新宿 (Shinjuku),2014-09-23,23:01～24:00,0.0353,0.0305,0.0332,
新宿 (Shinjuku),2014-09-23,22:01～23:00,0.0356,0.0314,0.0333,
新宿 (Shinjuku),2014-09-23,21:01～22:00,0.0354,0.0309,0.0335,
新宿 (Shinjuku),2014-09-23,20:01～21:00,0.0357,0.0307,0.0334,
新宿 (Shinjuku),2014-09-23,19:01～20:00,0.0348,0.0299,0.0329,
新宿 (Shinjuku),2014-09-23,18:01～19:00,0.0356,0.0310,0.0333,
新宿 (Shinjuku),2014-09-23,17:01～18:00,0.0353,0.0317,0.0336,
新宿 (Shinjuku),2014-09-23,16:01～17:00,0.0352,0.0316,0.0333,
新宿 (Shinjuku),2014-09-23,15:01～16:00,0.0366,0.0315,0.0336,
新宿 (Shinjuku),2014-09-23,14:01～15:00,0.0368,0.0316,0.0337,
新宿 (Shinjuku),2014-09-23,13:01～14:00,0.0352,0.0317,0.0338,
新宿 (Shinjuku),2014-09-23,12:01～13:00,0.0359,0.0322,0.0340,
新宿 (Shinjuku),2014-09-23,11:01～12:00,0.0364,0.0316,0.0339,
新宿 (Shinjuku),2014-09-23,10:01～11:00,0.0363,0.0324,0.0343,
新宿 (Shinjuku),2014-09-23,09:01～10:00,0.0365,0.0329,0.0345,
新宿 (Shinjuku),2014-09-23,08:01～09:00,0.0366,0.0319,0.0341,
新宿 (Shinjuku),2014-09-23,07:01～08:00,0.0365,0.0323,0.0343,
新宿 (Shinjuku),2014-09-23,06:01～07:00,0.0362,0.0321,0.0342,
新宿 (Shinjuku),2014-09-23,05:01～06:00,0.0360,0.0316,0.0338,
新宿 (Shinjuku),2014-09-23,04:01～05:00,0.0360,0.0317,0.0338,
新宿 (Shinjuku),2014-09-23,03:01～04:00,0.0351,0.0312,0.0337,
新宿 (Shinjuku),2014-09-23,02:01～03:00,0.0355,0.0319,0.0333,
新宿 (Shinjuku),2014-09-23,01:01～02:00,0.0359,0.0317,0.0337,
新宿 (Shinjuku),2014-09-23,00:01～01:00,0.0359,0.0318,0.0336,
新宿 (Shinjuku),2014-09-22,23:01～24:00,0.0355,0.0317,0.0333,
新宿 (Shinjuku),2014-09-22,22:01～23:00,0.0354,0.0317,0.0339,
新宿 (Shinjuku),2014-09-22,21:01～22:00,0.0358,0.0321,0.0339,
新宿 (Shinjuku),2014-09-22,20:01～21:00,0.0362,0.0322,0.0338,
新宿 (Shinjuku),2014-09-22,19:01～20:00,0.0365,0.0316,0.0342,
新宿 (Shinjuku),2014-09-22,18:01～19:00,0.0353,0.0314,0.0335,
新宿 (Shinjuku),2014-09-22,17:01～18:00,0.0353,0.0308,0.0332,
新宿 (Shinjuku),2014-09-22,16:01～17:00,0.0355,0.0316,0.0334,
新宿 (Shinjuku),2014-09-22,15:01～16:00,0.0357,0.0319,0.0338,
新宿 (Shinjuku),2014-09-22,14:01～15:00,0.0357,0.0312,0.0339,
新宿 (Shinjuku),2014-09-22,13:01～14:00,0.0367,0.0317,0.0340,
新宿 (Shinjuku),2014-09-22,12:01～13:00,0.0356,0.0320,0.0338,
新宿 (Shinjuku),2014-09-22,11:01～12:00,0.0365,0.0318,0.0339,
新宿 (Shinjuku),2014-09-22,10:01～11:00,0.0361,0.0322,0.0341,
新宿 (Shinjuku),2014-09-22,09:01～10:00,0.0368,0.0324,0.0343,
新宿 (Shinjuku),2014-09-22,08:01～09:00,0.0361,0.0314,0.0341,
新宿 (Shinjuku),2014-09-22,07:01～08:00,0.0363,0.0310,0.0340,
新宿 (Shinjuku),2014-09-22,06:01～07:00,0.0368,0.0318,0.0340,
新宿 (Shinjuku),2014-09-22,05:01～06:00,0.0354,0.0321,0.0341,
新宿 (Shinjuku),2014-09-22,04:01～05:00,0.0355,0.0325,0.0339,
新宿 (Shinjuku),2014-09-22,03:01～04:00,0.0357,0.0319,0.0337,
新宿 (Shinjuku),2014-09-22,02:01～03:00,0.0356,0.0315,0.0336,
新宿 (Shinjuku),2014-09-22,01:01～02:00,0.0356,0.0311,0.0334,
新宿 (Shinjuku),2014-09-22,00:01～01:00,0.0360,0.0311,0.0333,
